date,time,SUV Intensity [MED/Hr],UV Index,Daily total [MED],Since Last [MED]
10/09/2023,00:01:06,0.000,0.0,0.0,0.0
10/09/2023,00:02:06,-0.000,0.0,0.0,0.0
10/09/2023,00:03:06,0.000,0.0,0.0,0.0
10/09/2023,00:04:06,0.000,0.0,0.0,0.0
10/09/2023,00:05:05,0.000,0.0,0.0,0.0
10/09/2023,00:06:04,0.001,0.0,0.0,0.0
10/09/2023,00:07:06,-0.001,0.0,0.0,0.0
10/09/2023,00:08:06,0.000,0.0,0.0,0.0
10/09/2023,00:09:07,0.000,0.0,0.0,0.0
10/09/2023,00:10:06,0.000,0.0,0.0,0.0
10/09/2023,00:11:06,-0.000,0.0,0.0,0.0
10/09/2023,00:12:08,-0.001,0.0,0.0,0.0
10/09/2023,00:13:06,0.000,0.0,0.0,0.0
10/09/2023,00:14:06,0.000,0.0,0.0,0.0
10/09/2023,00:15:06,0.000,0.0,0.0,0.0
10/09/2023,00:16:07,0.000,0.0,0.0,0.0
10/09/2023,00:17:06,0.001,0.0,0.0,0.0
10/09/2023,00:18:06,0.000,0.0,0.0,0.0
10/09/2023,00:19:06,0.000,0.0,0.0,0.0
10/09/2023,00:20:07,0.000,0.0,0.0,0.0
10/09/2023,00:21:06,0.001,0.0,0.0,0.0
10/09/2023,00:22:06,0.001,0.0,0.0,0.0
10/09/2023,00:23:07,0.000,0.0,0.0,0.0
10/09/2023,00:24:06,0.000,0.0,0.0,0.0
10/09/2023,00:25:06,-0.000,0.0,0.0,0.0
10/09/2023,00:26:07,0.000,0.0,0.0,0.0
10/09/2023,00:27:07,0.001,0.0,0.0,0.0
10/09/2023,00:28:06,0.000,0.0,0.0,0.0
10/09/2023,00:29:06,0.001,0.0,0.0,0.0
10/09/2023,00:30:07,0.000,0.0,0.0,0.0
10/09/2023,00:31:06,0.000,0.0,0.0,0.0
10/09/2023,00:32:06,0.000,0.0,0.0,0.0
10/09/2023,00:33:06,0.001,0.0,0.0,0.0
10/09/2023,00:34:07,0.000,0.0,0.0,0.0
10/09/2023,00:35:07,-0.001,0.0,0.0,0.0
10/09/2023,00:36:06,0.000,0.0,0.0,0.0
10/09/2023,00:37:10,0.001,0.0,0.0,0.0
10/09/2023,00:38:07,-0.000,0.0,0.0,0.0
10/09/2023,00:39:06,0.001,0.0,0.0,0.0
10/09/2023,00:40:04,0.000,0.0,0.0,0.0
10/09/2023,00:41:05,-0.001,0.0,0.0,0.0
10/09/2023,00:42:06,0.001,0.0,0.0,0.0
10/09/2023,00:43:06,0.000,0.0,0.0,0.0
10/09/2023,00:44:06,0.001,0.0,0.0,0.0
10/09/2023,00:45:07,0.001,0.0,0.0,0.0
10/09/2023,00:46:06,0.001,0.0,0.0,0.0
10/09/2023,00:47:07,0.000,0.0,0.0,0.0
10/09/2023,00:48:07,-0.001,0.0,0.0,0.0
10/09/2023,00:49:06,0.000,0.0,0.0,0.0
10/09/2023,00:50:06,0.001,0.0,0.0,0.0
10/09/2023,00:51:04,0.001,0.0,0.0,0.0
10/09/2023,00:52:05,0.000,0.0,0.0,0.0
10/09/2023,00:53:07,-0.000,0.0,0.0,0.0
10/09/2023,00:54:06,0.000,0.0,0.0,0.0
10/09/2023,00:55:06,0.000,0.0,0.0,0.0
10/09/2023,00:56:07,-0.000,0.0,0.0,0.0
10/09/2023,00:57:06,0.001,0.0,0.0,0.0
10/09/2023,00:58:06,0.000,0.0,0.0,0.0
10/09/2023,00:59:07,0.001,0.0,0.0,0.0
10/09/2023,01:00:06,-0.000,0.0,0.0,0.0
10/09/2023,01:01:06,-0.001,0.0,0.0,0.0
10/09/2023,01:02:07,0.000,0.0,0.0,0.0
10/09/2023,01:03:06,0.001,0.0,0.0,0.0
10/09/2023,01:04:06,0.000,0.0,0.0,0.0
10/09/2023,01:05:06,0.001,0.0,0.0,0.0
10/09/2023,01:06:07,0.001,0.0,0.0,0.0
10/09/2023,01:07:06,-0.001,0.0,0.0,0.0
10/09/2023,01:08:06,-0.000,0.0,0.0,0.0
10/09/2023,01:09:07,0.000,0.0,0.0,0.0
10/09/2023,01:10:06,0.000,0.0,0.0,0.0
10/09/2023,01:11:06,0.001,0.0,0.0,0.0
10/09/2023,01:12:07,-0.001,0.0,0.0,0.0
10/09/2023,01:13:06,0.001,0.0,0.0,0.0
10/09/2023,01:14:06,0.000,0.0,0.0,0.0
10/09/2023,01:15:07,-0.000,0.0,0.0,0.0
10/09/2023,01:16:06,0.001,0.0,0.0,0.0
10/09/2023,01:17:07,0.001,0.0,0.0,0.0
10/09/2023,01:18:06,0.001,0.0,0.0,0.0
10/09/2023,01:19:06,0.001,0.0,0.0,0.0
10/09/2023,01:20:06,0.001,0.0,0.0,0.0
10/09/2023,01:21:07,0.000,0.0,0.0,0.0
10/09/2023,01:22:06,0.000,0.0,0.0,0.0
10/09/2023,01:23:06,0.001,0.0,0.0,0.0
10/09/2023,01:24:06,0.000,0.0,0.0,0.0
10/09/2023,01:25:07,0.000,0.0,0.0,0.0
10/09/2023,01:26:06,0.001,0.0,0.0,0.0
10/09/2023,01:27:06,0.001,0.0,0.0,0.0
10/09/2023,01:28:07,0.001,0.0,0.0,0.0
10/09/2023,01:29:06,0.000,0.0,0.0,0.0
10/09/2023,01:30:05,0.001,0.0,0.0,0.0
10/09/2023,01:31:29,-0.000,0.0,0.0,0.0
10/09/2023,01:32:06,-0.000,0.0,0.0,0.0
10/09/2023,01:33:07,0.001,0.0,0.0,0.0
10/09/2023,01:34:06,0.001,0.0,0.0,0.0
10/09/2023,01:35:07,0.001,0.0,0.0,0.0
10/09/2023,01:36:06,0.002,0.0,0.0,0.0
10/09/2023,01:37:06,0.001,0.0,0.0,0.0
10/09/2023,01:38:07,0.001,0.0,0.0,0.0
10/09/2023,01:39:07,-0.000,0.0,0.0,0.0
10/09/2023,01:40:06,0.000,0.0,0.0,0.0
10/09/2023,01:41:06,0.001,0.0,0.0,0.0
10/09/2023,01:42:06,0.000,0.0,0.0,0.0
10/09/2023,01:43:06,0.001,0.0,0.0,0.0
10/09/2023,01:44:07,0.000,0.0,0.0,0.0
10/09/2023,01:45:06,0.001,0.0,0.0,0.0
10/09/2023,01:46:06,0.000,0.0,0.0,0.0
10/09/2023,01:47:06,0.001,0.0,0.0,0.0
10/09/2023,01:48:07,0.000,0.0,0.0,0.0
10/09/2023,01:49:06,0.001,0.0,0.0,0.0
10/09/2023,01:50:07,0.001,0.0,0.0,0.0
10/09/2023,01:51:06,-0.000,0.0,0.0,0.0
10/09/2023,01:52:06,0.001,0.0,0.0,0.0
10/09/2023,01:53:07,0.001,0.0,0.0,0.0
10/09/2023,01:54:06,0.001,0.0,0.0,0.0
10/09/2023,01:55:06,0.001,0.0,0.0,0.0
10/09/2023,01:56:07,0.002,0.0,0.0,0.0
10/09/2023,01:57:06,-0.000,0.0,0.0,0.0
10/09/2023,01:58:07,0.001,0.0,0.0,0.0
10/09/2023,01:59:06,0.000,0.0,0.0,0.0
10/09/2023,02:00:06,0.002,0.0,0.0,0.0
10/09/2023,02:01:07,0.001,0.0,0.0,0.0
10/09/2023,02:02:06,0.001,0.0,0.0,0.0
10/09/2023,02:03:07,0.000,0.0,0.0,0.0
10/09/2023,02:04:06,0.000,0.0,0.0,0.0
10/09/2023,02:05:07,0.001,0.0,0.0,0.0
10/09/2023,02:06:06,-0.000,0.0,0.0,0.0
10/09/2023,02:07:06,0.001,0.0,0.0,0.0
10/09/2023,02:08:07,0.001,0.0,0.0,0.0
10/09/2023,02:09:06,0.002,0.0,0.0,0.0
10/09/2023,02:10:06,0.001,0.0,0.0,0.0
10/09/2023,02:11:07,0.000,0.0,0.0,0.0
10/09/2023,02:12:07,0.001,0.0,0.0,0.0
10/09/2023,02:13:06,0.001,0.0,0.0,0.0
10/09/2023,02:14:07,0.000,0.0,0.0,0.0
10/09/2023,02:15:06,0.001,0.0,0.0,0.0
10/09/2023,02:16:06,-0.000,0.0,0.0,0.0
10/09/2023,02:17:07,0.000,0.0,0.0,0.0
10/09/2023,02:18:06,0.000,0.0,0.0,0.0
10/09/2023,02:19:06,0.002,0.0,0.0,0.0
10/09/2023,02:20:07,0.002,0.0,0.0,0.0
10/09/2023,02:21:06,0.001,0.0,0.0,0.0
10/09/2023,02:22:07,0.000,0.0,0.0,0.0
10/09/2023,02:23:06,0.001,0.0,0.0,0.0
10/09/2023,02:24:06,0.001,0.0,0.0,0.0
10/09/2023,02:25:07,0.001,0.0,0.0,0.0
10/09/2023,02:26:06,-0.000,0.0,0.0,0.0
10/09/2023,02:27:07,0.002,0.0,0.0,0.0
10/09/2023,02:28:06,0.001,0.0,0.0,0.0
10/09/2023,02:29:07,0.001,0.0,0.0,0.0
10/09/2023,02:30:07,0.002,0.0,0.0,0.0
10/09/2023,02:31:06,0.001,0.0,0.0,0.0
10/09/2023,02:32:07,0.000,0.0,0.0,0.0
10/09/2023,02:33:07,0.001,0.0,0.0,0.0
10/09/2023,02:34:06,0.002,0.0,0.0,0.0
10/09/2023,02:35:06,0.001,0.0,0.0,0.0
10/09/2023,02:36:07,0.001,0.0,0.0,0.0
10/09/2023,02:37:07,0.001,0.0,0.0,0.0
10/09/2023,02:38:06,0.000,0.0,0.0,0.0
10/09/2023,02:39:06,0.001,0.0,0.0,0.0
10/09/2023,02:40:07,0.000,0.0,0.0,0.0
10/09/2023,02:41:06,0.001,0.0,0.0,0.0
10/09/2023,02:42:07,0.001,0.0,0.0,0.0
10/09/2023,02:43:06,0.000,0.0,0.0,0.0
10/09/2023,02:44:06,0.000,0.0,0.0,0.0
10/09/2023,02:45:07,0.001,0.0,0.0,0.0
10/09/2023,02:46:06,0.002,0.0,0.0,0.0
10/09/2023,02:47:04,0.001,0.0,0.0,0.0
10/09/2023,02:48:04,0.001,0.0,0.0,0.0
10/09/2023,02:49:06,0.001,0.0,0.0,0.0
10/09/2023,02:50:09,-0.000,0.0,0.0,0.0
10/09/2023,02:51:07,0.001,0.0,0.0,0.0
10/09/2023,02:52:06,0.001,0.0,0.0,0.0
10/09/2023,02:53:04,0.001,0.0,0.0,0.0
10/09/2023,02:54:05,0.001,0.0,0.0,0.0
10/09/2023,02:55:07,0.000,0.0,0.0,0.0
10/09/2023,02:56:06,0.001,0.0,0.0,0.0
10/09/2023,02:57:06,-0.000,0.0,0.0,0.0
10/09/2023,02:58:07,-0.000,0.0,0.0,0.0
10/09/2023,02:59:06,-0.000,0.0,0.0,0.0
10/09/2023,03:00:07,-0.000,0.0,0.0,0.0
10/09/2023,03:01:06,0.001,0.0,0.0,0.0
10/09/2023,03:02:06,0.001,0.0,0.0,0.0
10/09/2023,03:03:07,-0.000,0.0,0.0,0.0
10/09/2023,03:04:06,0.001,0.0,0.0,0.0
10/09/2023,03:05:06,-0.000,0.0,0.0,0.0
10/09/2023,03:06:07,0.001,0.0,0.0,0.0
10/09/2023,03:07:06,0.002,0.0,0.0,0.0
10/09/2023,03:08:06,0.001,0.0,0.0,0.0
10/09/2023,03:09:07,0.002,0.0,0.0,0.0
10/09/2023,03:10:06,0.002,0.0,0.0,0.0
10/09/2023,03:11:07,0.001,0.0,0.0,0.0
10/09/2023,03:12:06,0.001,0.0,0.0,0.0
10/09/2023,03:13:06,0.001,0.0,0.0,0.0
10/09/2023,03:14:07,0.000,0.0,0.0,0.0
10/09/2023,03:15:06,0.001,0.0,0.0,0.0
10/09/2023,03:16:06,0.002,0.0,0.0,0.0
10/09/2023,03:17:07,0.001,0.0,0.0,0.0
10/09/2023,03:18:07,0.000,0.0,0.0,0.0
10/09/2023,03:19:06,-0.000,0.0,0.0,0.0
10/09/2023,03:20:05,0.000,0.0,0.0,0.0
10/09/2023,03:21:05,0.001,0.0,0.0,0.0
10/09/2023,03:22:06,0.001,0.0,0.0,0.0
10/09/2023,03:23:07,-0.000,0.0,0.0,0.0
10/09/2023,03:24:06,0.002,0.0,0.0,0.0
10/09/2023,03:25:06,0.001,0.0,0.0,0.0
10/09/2023,03:26:07,0.000,0.0,0.0,0.0
10/09/2023,03:27:07,0.000,0.0,0.0,0.0
10/09/2023,03:28:06,-0.000,0.0,0.0,0.0
10/09/2023,03:29:07,0.000,0.0,0.0,0.0
10/09/2023,03:30:06,-0.000,0.0,0.0,0.0
10/09/2023,03:31:07,0.001,0.0,0.0,0.0
10/09/2023,03:32:07,0.001,0.0,0.0,0.0
10/09/2023,03:33:06,0.001,0.0,0.0,0.0
10/09/2023,03:34:07,0.001,0.0,0.0,0.0
10/09/2023,03:35:06,0.001,0.0,0.0,0.0
10/09/2023,03:36:07,0.001,0.0,0.0,0.0
10/09/2023,03:37:06,0.000,0.0,0.0,0.0
10/09/2023,03:38:07,0.001,0.0,0.0,0.0
10/09/2023,03:39:06,-0.000,0.0,0.0,0.0
10/09/2023,03:40:05,0.001,0.0,0.0,0.0
10/09/2023,03:41:04,0.001,0.0,0.0,0.0
10/09/2023,03:42:06,0.000,0.0,0.0,0.0
10/09/2023,03:43:06,0.001,0.0,0.0,0.0
10/09/2023,03:44:06,0.001,0.0,0.0,0.0
10/09/2023,03:45:07,0.001,0.0,0.0,0.0
10/09/2023,03:46:07,0.000,0.0,0.0,0.0
10/09/2023,03:47:07,0.001,0.0,0.0,0.0
10/09/2023,03:48:06,0.001,0.0,0.0,0.0
10/09/2023,03:49:07,0.001,0.0,0.0,0.0
10/09/2023,03:50:07,0.001,0.0,0.0,0.0
10/09/2023,03:51:07,-0.000,0.0,0.0,0.0
10/09/2023,03:52:06,0.001,0.0,0.0,0.0
10/09/2023,03:53:07,0.001,0.0,0.0,0.0
10/09/2023,03:54:06,0.001,0.0,0.0,0.0
10/09/2023,03:55:07,0.001,0.0,0.0,0.0
10/09/2023,03:56:07,0.001,0.0,0.0,0.0
10/09/2023,03:57:06,0.001,0.0,0.0,0.0
10/09/2023,03:58:05,0.000,0.0,0.0,0.0
10/09/2023,03:59:05,0.001,0.0,0.0,0.0
10/09/2023,04:00:07,0.002,0.0,0.0,0.0
10/09/2023,04:01:07,0.001,0.0,0.0,0.0
10/09/2023,04:02:07,0.001,0.0,0.0,0.0
10/09/2023,04:03:07,0.001,0.0,0.0,0.0
10/09/2023,04:04:06,0.001,0.0,0.0,0.0
10/09/2023,04:05:06,0.002,0.0,0.0,0.0
10/09/2023,04:06:07,0.001,0.0,0.0,0.0
10/09/2023,04:07:07,0.001,0.0,0.0,0.0
10/09/2023,04:08:06,0.002,0.0,0.0,0.0
10/09/2023,04:09:06,0.001,0.0,0.0,0.0
10/09/2023,04:10:07,0.001,0.0,0.0,0.0
10/09/2023,04:11:06,0.002,0.0,0.0,0.0
10/09/2023,04:12:07,0.001,0.0,0.0,0.0
10/09/2023,04:13:07,0.001,0.0,0.0,0.0
10/09/2023,04:14:06,0.001,0.0,0.0,0.0
10/09/2023,04:15:07,0.001,0.0,0.0,0.0
10/09/2023,04:16:06,0.001,0.0,0.0,0.0
10/09/2023,04:17:07,0.002,0.0,0.0,0.0
10/09/2023,04:18:06,0.001,0.0,0.0,0.0
10/09/2023,04:19:07,0.002,0.0,0.0,0.0
10/09/2023,04:20:06,0.000,0.0,0.0,0.0
10/09/2023,04:21:05,0.000,0.0,0.0,0.0
10/09/2023,04:22:05,0.001,0.0,0.0,0.0
10/09/2023,04:23:06,0.001,0.0,0.0,0.0
10/09/2023,04:24:07,0.000,0.0,0.0,0.0
10/09/2023,04:25:07,0.001,0.0,0.0,0.0
10/09/2023,04:26:07,0.001,0.0,0.0,0.0
10/09/2023,04:27:07,0.001,0.0,0.0,0.0
10/09/2023,04:28:06,0.001,0.0,0.0,0.0
10/09/2023,04:29:05,0.000,0.0,0.0,0.0
10/09/2023,04:30:05,0.002,0.0,0.0,0.0
10/09/2023,04:31:07,-0.000,0.0,0.0,0.0
10/09/2023,04:32:07,-0.000,0.0,0.0,0.0
10/09/2023,04:33:07,0.002,0.0,0.0,0.0
10/09/2023,04:34:07,-0.000,0.0,0.0,0.0
10/09/2023,04:35:07,0.001,0.0,0.0,0.0
10/09/2023,04:36:07,0.000,0.0,0.0,0.0
10/09/2023,04:37:06,0.001,0.0,0.0,0.0
10/09/2023,04:38:07,0.001,0.0,0.0,0.0
10/09/2023,04:39:06,0.002,0.0,0.0,0.0
10/09/2023,04:40:06,0.001,0.0,0.0,0.0
10/09/2023,04:41:07,0.000,0.0,0.0,0.0
10/09/2023,04:42:07,0.001,0.0,0.0,0.0
10/09/2023,04:43:07,0.000,0.0,0.0,0.0
10/09/2023,04:44:07,0.001,0.0,0.0,0.0
10/09/2023,04:45:07,0.001,0.0,0.0,0.0
10/09/2023,04:46:07,0.002,0.0,0.0,0.0
10/09/2023,04:47:06,-0.000,0.0,0.0,0.0
10/09/2023,04:48:06,-0.000,0.0,0.0,0.0
10/09/2023,04:49:07,0.001,0.0,0.0,0.0
10/09/2023,04:50:07,0.002,0.0,0.0,0.0
10/09/2023,04:51:07,0.000,0.0,0.0,0.0
10/09/2023,04:52:07,0.000,0.0,0.0,0.0
10/09/2023,04:53:05,-0.000,0.0,0.0,0.0
10/09/2023,04:54:05,0.001,0.0,0.0,0.0
10/09/2023,04:55:07,0.001,0.0,0.0,0.0
10/09/2023,04:56:07,0.001,0.0,0.0,0.0
10/09/2023,04:57:07,0.001,0.0,0.0,0.0
10/09/2023,04:58:07,0.001,0.0,0.0,0.0
10/09/2023,04:59:07,0.000,0.0,0.0,0.0
10/09/2023,05:00:07,0.000,0.0,0.0,0.0
10/09/2023,05:01:07,0.001,0.0,0.0,0.0
10/09/2023,05:02:07,0.001,0.0,0.0,0.0
10/09/2023,05:03:07,0.000,0.0,0.0,0.0
10/09/2023,05:04:07,0.000,0.0,0.0,0.0
10/09/2023,05:05:05,0.002,0.0,0.0,0.0
10/09/2023,05:06:05,0.002,0.0,0.0,0.0
10/09/2023,05:07:07,0.001,0.0,0.0,0.0
10/09/2023,05:08:10,0.001,0.0,0.0,0.0
10/09/2023,05:09:07,0.001,0.0,0.0,0.0
10/09/2023,05:10:06,0.001,0.0,0.0,0.0
10/09/2023,05:11:07,0.001,0.0,0.0,0.0
10/09/2023,05:12:07,0.001,0.0,0.0,0.0
10/09/2023,05:13:07,0.001,0.0,0.0,0.0
10/09/2023,05:14:07,0.001,0.0,0.0,0.0
10/09/2023,05:15:06,0.001,0.0,0.0,0.0
10/09/2023,05:16:07,0.001,0.0,0.0,0.0
10/09/2023,05:17:07,0.000,0.0,0.0,0.0
10/09/2023,05:18:07,0.000,0.0,0.0,0.0
10/09/2023,05:19:07,0.002,0.0,0.0,0.0
10/09/2023,05:20:07,0.001,0.0,0.0,0.0
10/09/2023,05:21:07,0.001,0.0,0.0,0.0
10/09/2023,05:22:08,0.002,0.0,0.0,0.0
10/09/2023,05:23:07,0.001,0.0,0.0,0.0
10/09/2023,05:24:05,0.001,0.0,0.0,0.0
10/09/2023,05:25:05,0.001,0.0,0.0,0.0
10/09/2023,05:26:07,0.001,0.0,0.0,0.0
10/09/2023,05:27:07,0.002,0.0,0.0,0.0
10/09/2023,05:28:07,0.003,0.0,0.0,0.0
10/09/2023,05:29:08,0.003,0.0,0.0,0.0
10/09/2023,05:30:07,0.002,0.0,0.0,0.0
10/09/2023,05:31:06,0.003,0.0,0.0,0.0
10/09/2023,05:32:07,0.003,0.0,0.0,0.0
10/09/2023,05:33:06,0.003,0.0,0.0,0.0
10/09/2023,05:34:07,0.003,0.0,0.0,0.0
10/09/2023,05:35:07,0.004,0.0,0.0,0.0
10/09/2023,05:36:07,0.004,0.0,0.0,0.0
10/09/2023,05:37:07,0.004,0.0,0.0,0.0
10/09/2023,05:38:07,0.004,0.0,0.0,0.0
10/09/2023,05:39:07,0.005,0.0,0.0,0.0
10/09/2023,05:40:07,0.005,0.0,0.0,0.0
10/09/2023,05:41:05,0.005,0.0,0.0,0.0
10/09/2023,05:42:05,0.004,0.0,0.0,0.0
10/09/2023,05:43:07,0.006,0.0,0.0,0.0
10/09/2023,05:44:07,0.006,0.0,0.0,0.0
10/09/2023,05:45:07,0.007,0.0,0.0,0.0
10/09/2023,05:46:07,0.008,0.0,0.0,0.0
10/09/2023,05:47:06,0.008,0.0,0.0,0.0
10/09/2023,05:48:07,0.009,0.0,0.001,0.001
10/09/2023,05:49:07,0.008,0.0,0.001,0.0
10/09/2023,05:50:07,0.008,0.0,0.001,0.0
10/09/2023,05:51:07,0.009,0.0,0.001,0.0
10/09/2023,05:52:07,0.010,0.0,0.001,0.0
10/09/2023,05:53:07,0.010,0.0,0.001,0.0
10/09/2023,05:54:07,0.010,0.0,0.001,0.0
10/09/2023,05:55:07,0.011,0.0,0.002,0.001
10/09/2023,05:56:07,0.011,0.0,0.002,0.0
10/09/2023,05:57:07,0.013,0.0,0.002,0.0
10/09/2023,05:58:07,0.013,0.0,0.002,0.0
10/09/2023,05:59:07,0.013,0.0,0.002,0.0
10/09/2023,06:00:07,0.013,0.0,0.003,0.001
10/09/2023,06:01:07,0.014,0.0,0.003,0.0
10/09/2023,06:02:07,0.015,0.0,0.003,0.0
10/09/2023,06:03:07,0.015,0.0,0.003,0.0
10/09/2023,06:04:10,0.016,0.0,0.004,0.001
10/09/2023,06:05:06,0.017,0.0,0.004,0.0
10/09/2023,06:06:07,0.017,0.0,0.004,0.0
10/09/2023,06:07:07,0.018,0.0,0.004,0.0
10/09/2023,06:08:07,0.018,0.0,0.005,0.001
10/09/2023,06:09:07,0.019,0.0,0.005,0.0
10/09/2023,06:10:07,0.020,0.0,0.005,0.0
10/09/2023,06:11:07,0.022,0.0,0.006,0.001
10/09/2023,06:12:07,0.021,0.0,0.006,0.0
10/09/2023,06:13:07,0.022,0.0,0.006,0.0
10/09/2023,06:14:07,0.023,0.0,0.007,0.001
10/09/2023,06:15:07,0.024,0.0,0.007,0.0
10/09/2023,06:16:07,0.025,0.0,0.008,0.001
10/09/2023,06:17:07,0.027,0.0,0.008,0.0
10/09/2023,06:18:07,0.027,0.0,0.008,0.0
10/09/2023,06:19:06,0.027,0.0,0.009,0.001
10/09/2023,06:20:30,0.029,0.0,0.01,0.001
10/09/2023,06:22:07,0.029,0.0,0.01,0.0
10/09/2023,06:23:07,0.031,0.0,0.011,0.001
10/09/2023,06:24:07,0.032,0.0,0.011,0.0
10/09/2023,06:25:07,0.033,0.0,0.012,0.001
10/09/2023,06:26:07,0.034,0.0,0.012,0.0
10/09/2023,06:27:07,0.035,0.0,0.013,0.001
10/09/2023,06:28:07,0.035,0.0,0.014,0.001
10/09/2023,06:29:07,0.037,0.0,0.014,0.0
10/09/2023,06:30:07,0.036,0.0,0.015,0.001
10/09/2023,06:31:07,0.037,0.0,0.015,0.0
10/09/2023,06:32:07,0.037,0.0,0.016,0.001
10/09/2023,06:33:07,0.039,0.0,0.017,0.001
10/09/2023,06:34:07,0.040,0.0,0.017,0.0
10/09/2023,06:35:07,0.042,0.0,0.018,0.001
10/09/2023,06:36:09,0.043,0.0,0.019,0.001
10/09/2023,06:37:05,0.044,0.0,0.019,0.0
10/09/2023,06:38:06,0.046,0.0,0.02,0.001
10/09/2023,06:39:07,0.047,0.0,0.021,0.001
10/09/2023,06:40:07,0.048,0.0,0.022,0.001
10/09/2023,06:41:07,0.049,0.0,0.023,0.001
10/09/2023,06:42:07,0.050,0.0,0.023,0.0
10/09/2023,06:43:07,0.051,0.0,0.024,0.001
10/09/2023,06:44:05,0.053,0.0,0.025,0.001
10/09/2023,06:45:05,0.056,0.0,0.026,0.001
10/09/2023,06:46:07,0.056,0.0,0.027,0.001
10/09/2023,06:47:07,0.059,0.0,0.028,0.001
10/09/2023,06:48:07,0.060,0.0,0.029,0.001
10/09/2023,06:49:07,0.063,0.0,0.03,0.001
10/09/2023,06:50:07,0.063,0.0,0.031,0.001
10/09/2023,06:51:07,0.066,0.0,0.032,0.001
10/09/2023,06:52:07,0.068,0.0,0.033,0.001
10/09/2023,06:53:07,0.069,0.0,0.034,0.001
10/09/2023,06:54:07,0.071,0.0,0.036,0.002
10/09/2023,06:55:06,0.072,0.0,0.037,0.001
10/09/2023,06:56:08,0.073,0.0,0.038,0.001
10/09/2023,06:57:07,0.074,0.0,0.039,0.001
10/09/2023,06:58:07,0.077,0.0,0.04,0.001
10/09/2023,06:59:07,0.080,0.0,0.042,0.002
10/09/2023,07:00:07,0.084,0.0,0.043,0.001
10/09/2023,07:01:07,0.087,0.0,0.044,0.001
10/09/2023,07:02:07,0.089,0.0,0.046,0.002
10/09/2023,07:03:07,0.093,0.0,0.047,0.001
10/09/2023,07:04:07,0.096,0.0,0.049,0.002
10/09/2023,07:05:07,0.099,0.0,0.051,0.002
10/09/2023,07:06:07,0.102,0.0,0.052,0.001
10/09/2023,07:07:07,0.104,0.0,0.054,0.002
10/09/2023,07:08:07,0.104,0.0,0.056,0.002
10/09/2023,07:09:07,0.105,0.0,0.057,0.001
10/09/2023,07:10:07,0.105,0.0,0.059,0.002
10/09/2023,07:11:07,0.107,0.0,0.061,0.002
10/09/2023,07:12:07,0.106,0.0,0.063,0.002
10/09/2023,07:13:07,0.108,0.0,0.064,0.001
10/09/2023,07:14:07,0.108,0.0,0.066,0.002
10/09/2023,07:15:07,0.110,0.0,0.068,0.002
10/09/2023,07:16:07,0.112,0.0,0.07,0.002
10/09/2023,07:17:07,0.111,0.0,0.072,0.002
10/09/2023,07:18:07,0.113,0.0,0.074,0.002
10/09/2023,07:19:07,0.113,0.0,0.076,0.002
10/09/2023,07:20:07,0.116,0.0,0.078,0.002
10/09/2023,07:21:07,0.119,0.0,0.079,0.001
10/09/2023,07:22:07,0.121,0.0,0.081,0.002
10/09/2023,07:23:05,0.125,0.0,0.083,0.002
10/09/2023,07:24:06,0.129,0.0,0.086,0.003
10/09/2023,07:25:07,0.134,0.0,0.088,0.002
10/09/2023,07:26:07,0.139,0.0,0.09,0.002
10/09/2023,07:27:07,0.141,0.0,0.092,0.002
10/09/2023,07:28:07,0.147,0.0,0.095,0.003
10/09/2023,07:29:08,0.153,0.0,0.097,0.002
10/09/2023,07:30:07,0.156,0.0,0.1,0.003
10/09/2023,07:31:07,0.163,0.0,0.103,0.003
10/09/2023,07:32:07,0.168,0.0,0.105,0.002
10/09/2023,07:33:07,0.174,0.0,0.108,0.003
10/09/2023,07:34:05,0.172,0.0,0.111,0.003
10/09/2023,07:35:05,0.175,0.0,0.114,0.003
10/09/2023,07:36:07,0.180,0.0,0.117,0.003
10/09/2023,07:37:07,0.188,0.0,0.12,0.003
10/09/2023,07:38:07,0.185,0.0,0.123,0.003
10/09/2023,07:39:05,0.187,0.0,0.126,0.003
10/09/2023,07:40:05,0.192,0.0,0.129,0.003
10/09/2023,07:41:08,0.200,0.0,0.133,0.004
10/09/2023,07:42:07,0.204,0.0,0.136,0.003
10/09/2023,07:43:07,0.211,0.0,0.139,0.003
10/09/2023,07:44:07,0.225,1.0,0.143,0.004
10/09/2023,07:45:07,0.226,1.0,0.147,0.004
10/09/2023,07:46:07,0.234,1.0,0.151,0.004
10/09/2023,07:47:07,0.236,1.0,0.155,0.004
10/09/2023,07:48:07,0.243,1.0,0.159,0.004
10/09/2023,07:49:07,0.249,1.0,0.163,0.004
10/09/2023,07:50:07,0.250,1.0,0.167,0.004
10/09/2023,07:51:07,0.250,1.0,0.171,0.004
10/09/2023,07:52:08,0.250,1.0,0.175,0.004
10/09/2023,07:53:07,0.251,1.0,0.179,0.004
10/09/2023,07:54:07,0.250,1.0,0.183,0.004
10/09/2023,07:55:07,0.246,1.0,0.188,0.005
10/09/2023,07:56:07,0.244,1.0,0.192,0.004
10/09/2023,07:57:07,0.249,1.0,0.196,0.004
10/09/2023,07:58:07,0.241,1.0,0.2,0.004
10/09/2023,07:59:07,0.229,1.0,0.204,0.004
10/09/2023,08:00:08,0.230,1.0,0.208,0.004
10/09/2023,08:01:07,0.234,1.0,0.211,0.003
10/09/2023,08:02:07,0.234,1.0,0.215,0.004
10/09/2023,08:03:08,0.234,1.0,0.219,0.004
10/09/2023,08:04:07,0.235,1.0,0.223,0.004
10/09/2023,08:05:07,0.237,1.0,0.227,0.004
10/09/2023,08:06:07,0.241,1.0,0.231,0.004
10/09/2023,08:07:07,0.247,1.0,0.235,0.004
10/09/2023,08:08:07,0.255,1.0,0.239,0.004
10/09/2023,08:09:07,0.264,1.0,0.244,0.005
10/09/2023,08:10:07,0.271,1.0,0.248,0.004
10/09/2023,08:11:07,0.276,1.0,0.253,0.005
10/09/2023,08:12:07,0.276,1.0,0.257,0.004
10/09/2023,08:13:07,0.285,1.0,0.262,0.005
10/09/2023,08:14:07,0.271,1.0,0.266,0.004
10/09/2023,08:15:07,0.268,1.0,0.271,0.005
10/09/2023,08:16:08,0.262,1.0,0.276,0.005
10/09/2023,08:17:07,0.260,1.0,0.28,0.004
10/09/2023,08:18:08,0.247,1.0,0.284,0.004
10/09/2023,08:19:07,0.238,1.0,0.288,0.004
10/09/2023,08:20:07,0.232,1.0,0.292,0.004
10/09/2023,08:21:08,0.225,1.0,0.296,0.004
10/09/2023,08:22:07,0.220,1.0,0.3,0.004
10/09/2023,08:23:07,0.213,0.0,0.303,0.003
10/09/2023,08:24:07,0.206,0.0,0.307,0.004
10/09/2023,08:25:06,0.199,0.0,0.31,0.003
10/09/2023,08:26:29,0.190,0.0,0.314,0.004
10/09/2023,08:27:06,0.186,0.0,0.316,0.002
10/09/2023,08:28:08,0.181,0.0,0.319,0.003
10/09/2023,08:29:07,0.179,0.0,0.322,0.003
10/09/2023,08:30:07,0.177,0.0,0.325,0.003
10/09/2023,08:31:07,0.178,0.0,0.328,0.003
10/09/2023,08:32:07,0.179,0.0,0.331,0.003
10/09/2023,08:33:08,0.184,0.0,0.334,0.003
10/09/2023,08:34:07,0.187,0.0,0.337,0.003
10/09/2023,08:35:08,0.194,0.0,0.341,0.004
10/09/2023,08:36:07,0.199,0.0,0.344,0.003
10/09/2023,08:37:07,0.207,0.0,0.347,0.003
10/09/2023,08:38:07,0.220,1.0,0.351,0.004
10/09/2023,08:39:07,0.238,1.0,0.355,0.004
10/09/2023,08:40:07,0.264,1.0,0.359,0.004
10/09/2023,08:41:07,0.293,1.0,0.363,0.004
10/09/2023,08:42:08,0.322,1.0,0.369,0.006
10/09/2023,08:43:07,0.348,1.0,0.374,0.005
10/09/2023,08:44:07,0.373,1.0,0.38,0.006
10/09/2023,08:45:07,0.394,1.0,0.387,0.007
10/09/2023,08:46:07,0.413,1.0,0.393,0.006
10/09/2023,08:47:07,0.443,1.0,0.401,0.008
10/09/2023,08:48:07,0.436,1.0,0.408,0.007
10/09/2023,08:49:07,0.486,1.0,0.415,0.007
10/09/2023,08:50:07,0.527,1.0,0.424,0.009
10/09/2023,08:51:07,0.532,1.0,0.433,0.009
10/09/2023,08:52:07,0.494,1.0,0.441,0.008
10/09/2023,08:53:07,0.486,1.0,0.45,0.009
10/09/2023,08:54:07,0.482,1.0,0.458,0.008
10/09/2023,08:55:07,0.544,1.0,0.466,0.008
10/09/2023,08:56:08,0.497,1.0,0.475,0.009
10/09/2023,08:57:05,0.481,1.0,0.483,0.008
10/09/2023,08:58:05,0.471,1.0,0.491,0.008
10/09/2023,08:59:08,0.459,1.0,0.499,0.008
10/09/2023,09:00:05,0.449,1.0,0.506,0.007
10/09/2023,09:01:05,0.420,1.0,0.513,0.007
10/09/2023,09:02:07,0.395,1.0,0.52,0.007
10/09/2023,09:03:07,0.376,1.0,0.527,0.007
10/09/2023,09:04:08,0.360,1.0,0.533,0.006
10/09/2023,09:05:07,0.345,1.0,0.539,0.006
10/09/2023,09:06:07,0.332,1.0,0.545,0.006
10/09/2023,09:07:07,0.320,1.0,0.55,0.005
10/09/2023,09:08:07,0.312,1.0,0.555,0.005
10/09/2023,09:09:07,0.310,1.0,0.56,0.005
10/09/2023,09:10:07,0.315,1.0,0.565,0.005
10/09/2023,09:11:08,0.327,1.0,0.571,0.006
10/09/2023,09:12:07,0.346,1.0,0.577,0.006
10/09/2023,09:13:07,0.370,1.0,0.583,0.006
10/09/2023,09:14:08,0.409,1.0,0.589,0.006
10/09/2023,09:15:07,0.493,1.0,0.596,0.007
10/09/2023,09:16:07,0.525,1.0,0.604,0.008
10/09/2023,09:17:07,0.588,1.0,0.614,0.01
10/09/2023,09:18:08,0.702,2.0,0.625,0.011
10/09/2023,09:19:07,0.796,2.0,0.637,0.012
10/09/2023,09:20:07,0.747,2.0,0.65,0.013
10/09/2023,09:21:07,0.845,2.0,0.664,0.014
10/09/2023,09:22:07,0.841,2.0,0.678,0.014
10/09/2023,09:23:07,0.812,2.0,0.691,0.013
10/09/2023,09:24:07,0.841,2.0,0.705,0.014
10/09/2023,09:25:07,0.821,2.0,0.718,0.013
10/09/2023,09:26:07,0.730,2.0,0.732,0.014
10/09/2023,09:27:08,0.763,2.0,0.745,0.013
10/09/2023,09:28:08,0.772,2.0,0.758,0.013
10/09/2023,09:29:08,0.704,2.0,0.771,0.013
10/09/2023,09:30:07,0.696,2.0,0.782,0.011
10/09/2023,09:31:07,0.678,2.0,0.793,0.011
10/09/2023,09:32:07,0.621,1.0,0.804,0.011
10/09/2023,09:33:07,0.594,1.0,0.814,0.01
10/09/2023,09:34:07,0.571,1.0,0.824,0.01
10/09/2023,09:35:07,0.569,1.0,0.833,0.009
10/09/2023,09:36:07,0.703,2.0,0.844,0.011
10/09/2023,09:37:08,0.657,2.0,0.855,0.011
10/09/2023,09:38:07,0.722,2.0,0.867,0.012
10/09/2023,09:39:07,0.549,1.0,0.877,0.01
10/09/2023,09:40:07,0.517,1.0,0.885,0.008
10/09/2023,09:41:07,0.538,1.0,0.894,0.009
10/09/2023,09:42:05,0.526,1.0,0.903,0.009
10/09/2023,09:43:05,0.519,1.0,0.911,0.008
10/09/2023,09:44:07,0.514,1.0,0.92,0.009
10/09/2023,09:45:07,0.497,1.0,0.929,0.009
10/09/2023,09:46:07,0.478,1.0,0.937,0.008
10/09/2023,09:47:07,0.464,1.0,0.945,0.008
10/09/2023,09:48:08,0.452,1.0,0.952,0.007
10/09/2023,09:49:07,0.447,1.0,0.96,0.008
10/09/2023,09:50:07,0.444,1.0,0.967,0.007
10/09/2023,09:51:08,0.441,1.0,0.974,0.007
10/09/2023,09:52:07,0.436,1.0,0.982,0.008
10/09/2023,09:53:07,0.436,1.0,0.989,0.007
10/09/2023,09:54:08,0.442,1.0,0.996,0.007
10/09/2023,09:55:08,0.449,1.0,1.004,0.008
10/09/2023,09:56:07,0.452,1.0,1.011,0.007
10/09/2023,09:57:08,0.445,1.0,1.019,0.008
10/09/2023,09:58:07,0.433,1.0,1.026,0.007
10/09/2023,09:59:07,0.420,1.0,1.033,0.007
10/09/2023,10:00:07,0.411,1.0,1.04,0.007
10/09/2023,10:01:08,0.406,1.0,1.047,0.007
10/09/2023,10:02:07,0.405,1.0,1.054,0.007
10/09/2023,10:03:07,0.402,1.0,1.06,0.006
10/09/2023,10:04:08,0.395,1.0,1.067,0.007